Date String (YYYY-MM-DD hh:mm:ss) UTC,Instrument flags,Ambient pressure (hPa),Sample flow (lpm),Bypass flow (lpm),Sample temperature (°C),Ambient temperature (°C),ASC tube jacket temperature (°C),LED temperature (°C),Box temperature (°C),Sample RH (%),Span deviation,Mass concentration (μg/m³),Mass concentration (μg/m³),Mass concentration (μg/m³)
DateTimeUTC,F1_M11,P_M11,Q1_M11,Q2_M11,T1_M11,T2_M11,T3_M11,T4_M11,T5_M11,U1_M11,ZSPAN_M11,X0_M11,X2_M11,X1_M11
2023-05-25 23:00:00,,0828.4,4.99,0.00,29.5,28.1,00.0,37.7,31.2,29.1,0002.7,0014.67,0007.26,0006.52
2023-05-25 23:01:00,,0828.4,5.00,0.00,29.5,26.6,00.0,37.7,31.0,28.6,0002.6,0014.48,0007.25,0006.54
2023-05-25 23:02:00,,0828.4,5.00,0.00,29.4,25.8,00.0,37.6,30.9,29.2,0002.6,0014.73,0007.23,0006.57
2023-05-25 23:03:00,,0828.4,5.01,0.00,29.4,25.8,00.0,37.6,30.8,29.3,0002.5,0015.15,0007.31,0006.61
2023-05-25 23:04:00,,0828.4,5.00,0.00,29.3,26.1,00.0,37.6,30.8,29.4,0002.4,0014.78,0007.34,0006.65
2023-05-25 23:05:00,,0828.4,4.99,0.00,29.3,26.4,00.0,37.6,30.8,29.6,0002.5,0014.72,0007.36,0006.64
2023-05-25 23:06:00,,0828.4,5.00,0.00,29.3,26.7,00.0,37.6,30.9,29.8,0002.5,0014.63,0007.35,0006.64
2023-05-25 23:07:00,,0828.4,4.99,0.00,29.3,27.0,00.0,37.6,30.9,29.8,0002.9,0014.95,0007.33,0006.65
2023-05-25 23:08:00,,0828.3,5.00,0.00,29.3,27.3,00.0,37.6,31.0,29.5,0003.1,0014.79,0007.41,0006.69
2023-05-25 23:09:00,,0828.3,5.00,0.00,29.3,27.5,00.0,37.6,31.0,29.5,0003.1,0014.34,0007.46,0006.73
2023-05-25 23:10:00,,0828.3,4.99,0.00,29.3,27.7,00.0,37.7,31.0,29.7,0003.2,0014.11,0007.45,0006.72
2023-05-25 23:11:00,,0828.3,4.99,0.00,29.4,27.8,00.0,37.7,31.1,29.4,0003.1,0014.58,0007.44,0006.69
2023-05-25 23:12:00,,0828.2,5.00,0.00,29.4,27.9,00.0,37.7,31.1,29.3,0003.1,0015.32,0007.43,0006.68
2023-05-25 23:13:00,,0828.2,5.01,0.00,29.4,28.0,00.0,37.7,31.1,29.1,0003.1,0015.56,0007.42,0006.66
2023-05-25 23:14:00,,0828.1,5.01,0.00,29.5,28.1,00.0,37.7,31.2,28.9,0003.0,0015.36,0007.39,0006.68
2023-05-25 23:15:00,,0828.2,5.00,0.00,29.5,28.2,00.0,37.7,31.2,28.8,0003.0,0015.37,0007.41,0006.71
2023-05-25 23:16:00,,0828.2,5.00,0.00,29.5,28.3,00.0,37.8,31.2,29.0,0003.0,0015.35,0007.41,0006.75
2023-05-25 23:17:00,,0828.1,4.98,0.00,29.5,27.4,00.0,37.7,31.2,28.7,0003.0,0015.24,0007.48,0006.83
2023-05-25 23:18:00,,0828.1,5.01,0.00,29.5,26.0,00.0,37.7,31.0,28.7,0002.9,0015.26,0007.56,0006.91
2023-05-25 23:19:00,,0828.1,5.01,0.00,29.4,25.7,00.0,37.6,30.8,28.7,0002.9,0015.20,0007.59,0006.94
2023-05-25 23:20:00,,0828.1,5.00,0.00,29.3,25.9,00.0,37.6,30.8,29.1,0002.7,0015.63,0007.62,0006.98
2023-05-25 23:21:00,,0828.1,5.00,0.00,29.3,26.2,00.0,37.6,30.8,29.1,0002.7,0016.57,0007.66,0007.02
2023-05-25 23:22:00,,0828.1,5.00,0.00,29.3,26.5,00.0,37.6,30.8,29.4,0002.9,0016.82,0007.65,0007.04
2023-05-25 23:23:00,,0828.1,5.00,0.00,29.3,26.8,00.0,37.6,30.9,29.3,0003.0,0017.48,0007.65,0007.05
2023-05-25 23:24:00,,0828.1,4.99,0.00,29.3,27.1,00.0,37.6,30.9,29.5,0003.0,0017.69,0007.64,0007.04
2023-05-25 23:25:00,,0828.1,4.99,0.00,29.3,27.3,00.0,37.6,31.0,29.4,0003.0,0017.81,0007.59,0006.99
2023-05-25 23:26:00,,0828.1,5.00,0.00,29.3,27.5,00.0,37.6,31.0,28.7,0003.1,0017.82,0007.52,0006.94
2023-05-25 23:27:00,,0828.1,5.00,0.00,29.3,27.7,00.0,37.7,31.0,28.8,0003.0,0018.24,0007.54,0006.91
2023-05-25 23:28:00,,0828.0,5.01,0.00,29.4,27.8,00.0,37.7,31.1,28.6,0003.1,0018.35,0007.52,0006.87
2023-05-25 23:29:00,,0828.1,5.02,0.00,29.4,27.9,00.0,37.7,31.1,28.5,0003.2,0018.11,0007.47,0006.83
2023-05-25 23:30:00,,0828.1,5.00,0.00,29.4,28.0,00.0,37.7,31.1,28.7,0003.0,0017.69,0007.42,0006.80
2023-05-25 23:31:00,,0828.1,5.00,0.00,29.4,28.1,00.0,37.7,31.2,28.8,0003.1,0017.52,0007.36,0006.77
2023-05-25 23:32:00,,0828.1,5.00,0.00,29.5,28.2,00.0,37.7,31.2,29.2,0003.1,0016.76,0007.37,0006.76
2023-05-25 23:33:00,,0828.2,5.00,0.00,29.5,28.3,00.0,37.7,31.2,28.7,0003.1,0015.86,0007.40,0006.77
2023-05-25 23:34:00,,0828.2,5.00,0.00,29.5,28.3,00.0,37.8,31.3,28.3,0003.0,0015.14,0007.49,0006.82
2023-05-25 23:35:00,,0828.4,4.98,0.00,29.6,27.7,00.0,37.8,31.2,28.6,0003.1,0015.21,0007.59,0006.87
2023-05-25 23:36:00,,0828.4,4.99,0.00,29.5,26.1,00.0,37.7,31.0,29.7,0003.1,0015.00,0007.68,0006.92
2023-05-25 23:37:00,,0828.3,5.01,0.00,29.5,25.6,00.0,37.6,30.9,27.3,0003.2,0015.03,0007.63,0006.87
2023-05-25 23:38:00,,0828.4,5.02,0.00,29.4,25.8,00.0,37.6,30.8,24.7,0003.3,0014.34,0007.39,0006.62
2023-05-25 23:39:00,,0828.4,5.00,0.00,29.3,26.1,00.0,37.6,30.8,23.3,0003.3,0013.67,0007.08,0006.32
2023-05-25 23:40:00,,0828.4,4.99,0.00,29.3,26.4,00.0,37.6,30.8,21.9,0003.3,0013.26,0006.74,0005.96
2023-05-25 23:41:00,,0828.4,4.99,0.00,29.3,26.6,00.0,37.6,30.8,21.6,0003.5,0012.77,0006.39,0005.58
2023-05-25 23:42:00,,0828.4,5.00,0.00,29.3,26.8,00.0,37.6,30.8,21.7,0003.6,0012.15,0005.96,0005.19
2023-05-25 23:43:00,,0828.3,5.00,0.00,29.3,27.0,00.0,37.6,30.8,21.8,0003.8,0011.25,0005.54,0004.83
2023-05-25 23:44:00,,0828.3,5.01,0.00,29.3,27.2,00.0,37.6,30.9,22.0,0003.9,0010.73,0005.12,0004.42
2023-05-25 23:45:00,,0828.4,5.00,0.00,29.3,27.3,00.0,37.6,30.9,22.4,0004.0,0009.83,0004.68,0003.99
2023-05-25 23:46:00,,0828.3,4.99,0.00,29.2,27.4,00.0,37.6,30.9,22.6,0004.2,0008.71,0004.20,0003.57
2023-05-25 23:47:00,,0828.3,4.99,0.00,29.2,27.5,00.0,37.6,30.9,22.6,0000.5,0007.51,0003.74,0003.14
2023-05-25 23:48:00,,0828.4,5.00,0.00,29.2,27.5,00.0,37.6,30.8,22.7,0000.0,0006.78,0003.43,0002.65
2023-05-25 23:49:00,,0828.3,5.00,0.00,29.2,27.5,00.0,37.6,30.8,22.9,0000.0,0006.36,0003.30,0002.44
2023-05-25 23:50:00,,0828.4,5.01,0.00,29.2,27.6,00.0,37.6,30.8,22.6,0000.0,0007.15,0003.24,0002.31
2023-05-25 23:51:00,,0828.4,5.00,0.00,29.2,27.6,00.0,37.6,30.8,22.7,0000.0,0007.31,0003.22,0002.29
2023-05-25 23:52:00,,0828.4,4.99,0.00,29.2,27.6,00.0,37.6,30.9,22.8,0000.0,0007.40,0003.22,0002.31
2023-05-25 23:53:00,,0828.4,4.99,0.00,29.2,27.6,00.0,37.6,30.9,22.7,0000.0,0007.49,0003.25,0002.33
2023-05-25 23:54:00,,0828.4,5.01,0.00,29.2,27.7,00.0,37.6,30.9,22.8,0000.0,0007.53,0003.28,0002.35
2023-05-25 23:55:00,,0828.4,5.01,0.00,29.2,27.7,00.0,37.6,30.9,22.6,0000.0,0007.49,0003.30,0002.37
2023-05-25 23:56:00,,0828.4,5.00,0.00,29.2,27.7,00.0,37.6,30.9,22.8,0000.0,0007.98,0003.33,0002.40
2023-05-25 23:57:00,,0828.4,5.00,0.00,29.2,27.7,00.0,37.6,30.9,22.8,0000.0,0008.42,0003.33,0002.41
2023-05-25 23:58:00,,0828.4,4.99,0.00,29.3,27.7,00.0,37.6,30.9,22.9,0000.0,0008.42,0003.35,0002.42
2023-05-25 23:59:00,,0828.4,4.99,0.00,29.3,27.7,00.0,37.6,30.9,23.0,0000.0,0008.31,0003.34,0002.43
